This is the latest recevied weather packets stored in our database for station/object AC8JV. If no packets are shown the sender has not sent any weather packets the latest 1 day(s).
| Time | Temp. | Humidity | Pressure | Rain* | Wind** | Luminosity | Snow |
|---|---|---|---|---|---|---|---|
| 1778008205 | 11.11° C | 45% | 1010 hPa | 0 mm | 4.47 m/s, 283° | - | - |
| 1778007604 | 11.11° C | 45% | 1009.9 hPa | 0 mm | 4.47 m/s, 279° | - | - |
| 1778007020 | 11.11° C | 44% | 1009.8 hPa | 0 mm | 4.02 m/s, 279° | - | - |
| 1778006424 | 11.11° C | 45% | 1009.8 hPa | 0 mm | 4.02 m/s, 267° | - | - |
| 1778005812 | 11.11° C | 43% | 1009.8 hPa | 0 mm | 4.47 m/s, 279° | - | - |
| 1778005206 | 11.67° C | 40% | 1009.7 hPa | 0 mm | 6.26 m/s, 273° | - | - |
| 1778004602 | 11.67° C | 39% | 1009.7 hPa | 0 mm | 4.02 m/s, 279° | - | - |
| 1778004021 | 12.22° C | 40% | 1009.4 hPa | 0 mm | 5.81 m/s, 236° | - | - |
| 1778003403 | 12.22° C | 41% | 1009.6 hPa | 0 mm | 6.26 m/s, 294° | - | - |
| 1778002802 | 11.67° C | 40% | 1009.2 hPa | 0 mm | 2.68 m/s, 265° | - | - |
| 1778002208 | 11.11° C | 41% | 1009.2 hPa | 0 mm | 4.47 m/s, 259° | - | - |
| 1778001609 | 11.11° C | 41% | 1009.1 hPa | 0 mm | 3.58 m/s, 284° | - | - |
| 1778001017 | 11.11° C | 39% | 1009.1 hPa | 0 mm | 5.36 m/s, 275° | - | - |
| 1778000433 | 11.67° C | 37% | 1008.9 hPa | 0 mm | 3.13 m/s, 311° | - | - |
| 1777999804 | 11.67° C | 42% | 1008.8 hPa | 0 mm | 5.36 m/s, 296° | - | - |
| 1777999217 | 11.67° C | 41% | 1008.5 hPa | 0 mm | 3.58 m/s, 309° | - | - |
| 1777998602 | 11.67° C | 42% | 1008.6 hPa | 0 mm | 4.92 m/s, 263° | - | - |
| 1777998020 | 11.67° C | 43% | 1008.7 hPa | 0 mm | 4.47 m/s, 286° | - | - |
| 1777997410 | 11.67° C | 44% | 1008.9 hPa | 0 mm | 5.81 m/s, 277° | - | - |
| 1777996820 | 11.11° C | 45% | 1008.9 hPa | 0 mm | 2.24 m/s, 282° | - | - |
| 1777996202 | 11.11° C | 45% | 1009 hPa | 0 mm | 5.36 m/s, 294° | - | - |
| 1777995605 | 10.56° C | 44% | 1009.1 hPa | 0 mm | 4.47 m/s, 294° | - | - |
| 1777995033 | 10° C | 47% | 1009 hPa | 0 mm | 3.58 m/s, 323° | - | - |
| 1777994419 | 10° C | 48% | 1009.1 hPa | 0 mm | 2.24 m/s, 274° | - | - |
| 1777993840 | 10° C | 52% | 1009.2 hPa | 0 mm | 4.02 m/s, 283° | - | - |
* Rain latest hour (hover to see other rain measurements)
** Current wind speed in m/s (hover to see current wind gust speed)